Location: The Saddle
(36.8333°N, 80.3417°W)
Time: 08:25:46
(UTC-04:00)

A-11 Canister half - Pass Details

Date: 27 May 2024
Orbit: 1515 x 1685 km, 47.2° (Epoch: 17 June)

Event Time Altitude Azimuth Distance (km) Brightness Sun altitude
Exits shadow 03:12:34 20° 264° (W) 3,082 10.2 -25.9°
Maximum altitude 03:19:38 59° 338° (NNW) 1,756 9.4 -25.2°
Drops below altitude 10° 03:28:49 10° 57° (ENE) 3,693 11.9 -24.2°
Sets 03:31:55 0° 62° (ENE) 4,666 12.5 -23.8°
